This demonstration page uses our WeatherBlox Daily Observations layout. Learn more.

Left ArrowRight Arrow

44.8408, -93.29828

Hourly Observations for March 22, 2015

Temp ( °F °C ) Dew Point ( °F °C ) Humidity (%) Winds ( mph kmh ) Pressure ( in mb ) Visibility ( mi km ) Precip ( " mm )
12:53 am 00:53 Partly Cloudy 32 0 8 -13.3 36 36 NNE 7 11 30.32 1027 10 16 0.00 0.00
1:53 am 01:53 Partly Cloudy 32 0 8 -13.3 36 36 NNE 7 11 30.32 1027 10 16 0.00 0.00
2:53 am 02:53 Mostly Cloudy 32 0 8 -13.3 36 36 NNE 7 11 30.32 1027 10 16 0.00 0.00
3:53 am 03:53 Cloudy 32 0 9 -12.8 38 38 NNE 10 17 30.31 1026 10 16 0.00 0.00
4:53 am 04:53 Cloudy 31 -0.6 9 -12.8 40 40 NE 15 24 30.30 1026 10 16 0.00 0.00
5:53 am 05:53 Cloudy 32 0 8 -13.3 36 36 NE 14 22 30.31 1026 10 16 0.00 0.00
6:53 am 06:53 Cloudy 31 -0.6 9 -12.8 40 40 ENE 10 17 30.32 1027 10 16 0.00 0.00
7:53 am 07:53 Cloudy 31 -0.6 7 -13.9 36 36 ENE 15 24 30.33 1027 10 16 0.00 0.00
8:53 am 08:53 Cloudy 31 -0.6 8 -13.3 38 38 ENE 14 22 30.34 1027 10 16 0.00 0.00
9:53 am 09:53 Cloudy 32 0 10 -12.2 40 40 ENE 16 26 30.34 1027 10 16 0.00 0.00
10:53 am 10:53 Cloudy 33 0.6 11 -11.7 40 40 E 15 24 30.35 1028 10 16 0.00 0.00
11:53 am 11:53 Cloudy 32 0 15 -9.4 50 50 E 15 24 30.33 1027 10 16 0.00 0.00
12:53 pm 12:53 Cloudy 33 0.6 18 -7.8 54 54 ENE 12 19 30.32 1027 10 16 0.00 0.00
1:53 pm 13:53 Cloudy 34 1.1 18 -7.8 52 52 E 13 20 30.30 1026 10 16 0.00 0.00
2:53 pm 14:53 Cloudy 34 1.1 20 -6.7 56 56 E 10 17 30.27 1025 10 16 0.00 0.00
3:53 pm 15:53 Cloudy 34 1.1 19 -7.2 54 54 ENE 13 20 30.26 1025 10 16 0.00 0.00
4:53 pm 16:53 Cloudy 34 1.1 18 -7.8 52 52 E 9 15 30.26 1025 10 16 0.00 0.00
5:47 pm 17:47 Cloudy with Light Snow 34 1 19 -7 56 56 ENE 13 20 30.24 1024 3 4 0.00 0.03
5:49 pm 17:49 Cloudy with Light Snow 34 1 21 -6 60 60 ENE 13 20 30.27 1025 1 2 0.00 0.03
5:53 pm 17:53 Cloudy with Light Snow 32 0 24 -4.4 73 73 ENE 17 28 30.26 1025 1 2 0.00 0.03
6:07 pm 18:07 Cloudy with Light Snow 31 -0.6 25 -3.9 79 79 E 14 22 30.27 1025 2 3 0.00 0.03
6:46 pm 18:46 Cloudy with Light Snow 30 -1.1 27 -2.8 88 88 ENE 9 15 30.27 1025 1 2 0.00 0.03
6:53 pm 18:53 Mostly Cloudy with Snow 30 -1.1 27 -2.8 88 88 ENE 10 17 30.26 1025 1 1 0.01 0.25
7:06 pm 19:06 Mostly Cloudy with Snow 28 -2 27 -3 93 93 ENE 10 17 30.30 1026 1 1 0.00 0.00
7:26 pm 19:26 Mostly Cloudy with Snow 28 -2 28 -2 100 100 E 10 17 30.30 1026 1 1 0.00 0.00
7:53 pm 19:53 Mostly Cloudy with Snow 29 -1.7 28 -2.2 96 96 ENE 6 9 30.29 1026 1 1 0.04 1.02
8:26 pm 20:26 Mostly Cloudy with Light Snow 28 -2 28 -2 100 100 E 8 13 30.33 1027 1 1 0.00 0.00
8:53 pm 20:53 Mostly Cloudy with Light Snow 30 -1.1 28 -2.2 92 92 E 8 13 30.29 1026 1 1 0.06 1.52
9:00 pm 21:00 Mostly Cloudy with Light Snow 28 -2 28 -2 100 100 E 9 15 30.33 1027 1 2 0.00 0.00
9:13 pm 21:13 Cloudy with Light Snow 30 -1.1 28 -2.2 92 92 E 7 11 30.30 1026 2 2 0.01 0.25
9:24 pm 21:24 Cloudy with Light Snow 30 -1 28 -2 93 93 ENE 8 13 30.27 1025 1 2 0.00 0.00
9:37 pm 21:37 Cloudy with Light Snow 30 -1.1 28 -2.2 92 92 E 8 13 30.27 1025 2 3 0.01 0.25
9:46 pm 21:46 Cloudy with Light Snow 30 -1 28 -2 93 93 ENE 6 9 30.27 1025 2 3 0.00 0.00
9:53 pm 21:53 Cloudy with Light Snow 30 -1.1 28 -2.2 92 92 ENE 6 9 30.28 1026 2 3 0.01 0.25
10:01 pm 22:01 Cloudy with Light Snow 30 -1.1 28 -2.2 92 92 E 6 9 30.27 1025 2 3 0.00 0.03
10:44 pm 22:44 Mostly Cloudy with Light Snow 30 -1 28 -2 93 93 ENE 7 11 30.30 1026 1 2 0.00 0.00
10:53 pm 22:53 Mostly Cloudy with Light Snow 30 -1.1 28 -2.2 92 92 E 6 9 30.29 1026 1 2 0.02 0.51
11:03 pm 23:03 Cloudy with Light Snow 30 -1 28 -2 93 93 E 8 13 30.30 1026 1 2 0.00 0.00
11:23 pm 23:23 Cloudy with Light Snow 29 -1.7 28 -2.2 96 96 ESE 6 9 30.33 1027 1 1 0.01 0.25
11:41 pm 23:41 Cloudy with Light Snow 29 -1.7 28 -2.2 96 96 E 5 7 30.33 1027 1 2 0.02 0.51
11:53 pm 23:53 Cloudy with Light Snow 29 -1.7 28 -2.2 96 96 E 8 13 30.29 1026 1 2 0.02 0.51

Powered by AerisWeather